This is the latest recevied weather packets stored in our database for station/object WR9A-13. If no packets are shown the sender has not sent any weather packets the latest 10 day(s).
| Time | Temp. | Humidity | Pressure | Rain* | Wind** | Luminosity | Snow |
|---|---|---|---|---|---|---|---|
| 1778163939 | 11.67° C | 50% | 1016.8 hPa | 0 mm | - | - | - |
| 1778163625 | 11.67° C | 50% | 1016.7 hPa | 0 mm | - | - | - |
| 1778163322 | 11.67° C | 50% | 1016.7 hPa | 0 mm | - | - | - |
| 1778163029 | 11.11° C | 52% | 1016.7 hPa | 0 mm | - | - | - |
| 1778162726 | 11.11° C | 50% | 1016.7 hPa | 0 mm | - | - | - |
| 1778162437 | 11.67° C | 52% | 1016.9 hPa | 0 mm | - | - | - |
| 1778162125 | 11.67° C | 56% | 1016.8 hPa | 0 mm | - | - | - |
| 1778161842 | 11.11° C | 55% | 1016.9 hPa | 0 mm | - | - | - |
| 1778161530 | 11.11° C | 54% | 1016.9 hPa | 0 mm | - | - | - |
| 1778161217 | 11.11° C | 58% | 1017 hPa | 0 mm | - | - | - |
| 1778160914 | 11.11° C | 56% | 1017.1 hPa | 0 mm | - | - | - |
| 1778160632 | 10.56° C | 58% | 1017 hPa | 0 mm | - | - | - |
| 1778160319 | 10.56° C | 61% | 1017 hPa | 0 mm | - | - | - |
| 1778160036 | 10° C | 64% | 1017 hPa | 0 mm | - | - | - |
| 1778159724 | 9.44° C | 65% | 1017.1 hPa | 0.25 mm | - | - | - |
| 1778159437 | 9.44° C | 66% | 1016.8 hPa | 0.25 mm | - | - | - |
| 1778159125 | 8.89° C | 64% | 1016.8 hPa | 0.25 mm | - | - | - |
| 1778158815 | 8.89° C | 63% | 1016.8 hPa | 0.25 mm | - | - | - |
| 1778158522 | 8.33° C | 65% | 1016.9 hPa | 0.25 mm | - | - | - |
| 1778158219 | 8.33° C | 68% | 1016.9 hPa | 0.25 mm | - | - | - |
| 1778157927 | 8.33° C | 71% | 1016.8 hPa | 0.25 mm | - | - | - |
| 1778157624 | 7.78° C | 72% | 1016.8 hPa | 0.25 mm | - | - | - |
| 1778157332 | 7.22° C | 73% | 1016.8 hPa | 0.25 mm | - | - | - |
| 1778157028 | 6.67° C | 73% | 1016.8 hPa | 0.25 mm | - | - | - |
| 1778156717 | 6.67° C | 74% | 1016.8 hPa | 0.25 mm | - | - | - |
* Rain latest hour (hover to see other rain measurements)
** Current wind speed in m/s (hover to see current wind gust speed)